Hourly Data Report for October 06, 2017

All times are specified in Local Standard Time (LST). Add 1 hour to adjust for Daylight Saving Time where and when it is observed.

MONCTON INTL A
NEW BRUNSWICK

46°06'44.000" N
64°40'43.000" W
70.70 m
8103201
71705
YQM

Download Data

Hourly Data (October 2017)
Hourly Data Report for October 6, 2017
Temp Definition
°C
Dew Point Temp Definition
°C
Rel Hum Definition
%
Wind Dir Definition
10's deg

Wind Spd Definition
km/h
Visibility Definition
km
Stn Press Definition
kPa
Hmdx Definition


Wind Chill Definition


Weather Definition


TIME
00:00 Legend Double Dagger 11.3 8.2 81 22 10 24.1 100.39     Rain Showers
01:00 Legend Double Dagger 11.3 8.5 83 21 11 24.1 100.42     LegendNANA
02:00 Legend Double Dagger 11.5 8.2 80 19 10 24.1 100.38     Mostly Cloudy
03:00 Legend Double Dagger 11.0 7.3 78 22 12 24.1 100.36     LegendNANA
04:00 Legend Double Dagger 10.6 6.8 77 25 14 24.1 100.39     LegendNANA
05:00 Legend Double Dagger 9.0 6.5 84 25 11 24.1 100.49     Mostly Cloudy
06:00 Legend Double Dagger 8.6 5.9 83 26 11 24.1 100.53     LegendNANA
07:00 Legend Double Dagger 8.4 6.6 88 23 13 24.1 100.63     LegendNANA
08:00 Legend Double Dagger 11.4 7.3 76 25 14 24.1 100.69     Mostly Cloudy
09:00 Legend Double Dagger 12.7 7.4 LegendMM 27 18 24.1 100.75     LegendNANA
10:00 Legend Double Dagger 15.0 7.4 LegendMM 31 15 24.1 100.74     LegendNANA
11:00 Legend Double Dagger 18.2 7.1 LegendMM 31 9 24.1 100.68     Mainly Clear
12:00 Legend Double Dagger 19.1 6.8 LegendMM 31 18 24.1 100.64     LegendNANA
13:00 Legend Double Dagger 19.7 7.1 LegendMM 27 28 24.1 100.60     LegendNANA
14:00 Legend Double Dagger 17.4 3.8 40 26 26 24.1 100.58     Mostly Cloudy
15:00 Legend Double Dagger 16.9 4.3 43 25 26 24.1 100.61     LegendNANA
16:00 Legend Double Dagger 17.4 5.2 44 26 17 24.1 100.61     LegendNANA
17:00 Legend Double Dagger 16.1 4.9 47 28 17 24.1 100.61     Mostly Cloudy
18:00 Legend Double Dagger 15.1 5.5 52 28 9 24.1 100.67     LegendNANA
19:00 Legend Double Dagger 13.8 6.0 59 23 13 24.1 100.74     LegendNANA
20:00 Legend Double Dagger 11.2 6.5 73 23 12 24.1 100.79     Clear
21:00 Legend Double Dagger 9.8 7.1 83 23 11 24.1 100.88     LegendNANA
22:00 Legend Double Dagger 8.9 6.9 87 23 10 24.1 100.96     LegendNANA
23:00 Legend Double Dagger 7.8 6.6 92 23 11 24.1 101.03     Clear

Notes on Data Quality.

Legend

  • E = Estimated
  • M = Missing
  • NA = Not Available
  • ‡ = Partner data that is not subject to review by the National Climate Archives
Date modified: